CW3319 Weather Reports


Display with metric or nautical units.
time (UTC)temp
F
wind
direction
speed
MPH
gust
MPH
rain 1hr
in
rain 24hr
in
rain mn
in
humidity
%
barometer
mb
20260901165902 86 325 0.0 0.0 0.00 0.00 0.00 54 1011.5
20260901164902 85 276 0.0 0.0 0.00 0.00 0.00 55 1011.4
20260901163902 84 270 0.0 0.0 0.00 0.00 0.00 58 1011.4
20260901162902 83 260 0.0 1.0 0.00 0.00 0.00 57 1011.5
20260901161902 81 249 0.0 0.0 0.00 0.00 0.00 63 1011.2
20260901160902 80 317 0.0 0.0 0.00 0.00 0.00 63 1011.1
20260901155902 80 237 0.0 0.0 0.00 0.00 0.00 66 1011.3
20260901154902 79 228 0.0 0.0 0.00 0.00 0.00 67 1011.4
20260901153902 78 290 0.0 0.0 0.00 0.00 0.00 70 1011.4
20260901152903 78 271 0.0 0.0 0.00 0.00 0.00 72 1011.4
20260901151901 77 301 0.0 0.0 0.00 0.00 0.00 74 1011.4
20260901150902 76 280 0.0 0.0 0.00 0.00 0.00 75 1011.6
20260901145902 76 262 0.0 0.0 0.00 0.00 0.00 78 1011.7
20260901144902 75 260 0.0 0.0 0.00 0.00 0.00 80 1011.6
20260901143902 75 259 0.0 0.0 0.00 0.00 0.00 82 1011.8
20260901142902 74 252 0.0 0.0 0.00 0.00 0.00 83 1011.8
20260901141902 73 201 0.0 0.0 0.00 0.00 0.00 84 1011.8
20260901140902 72 201 0.0 0.0 0.00 0.00 0.00 86 1011.8
20260901135933 71 201 0.0 0.0 0.00 0.00 0.00 88 1011.8
20260901134902 70 201 0.0 0.0 0.00 0.00 0.00 90 1011.9
20260901133902 70 201 0.0 0.0 0.00 0.00 0.00 91 1012.0
20260901132902 69 201 0.0 0.0 0.00 0.00 0.00 92 1011.9
20260901131932 69 201 0.0 0.0 0.00 0.00 0.00 93 1011.8
20260901130902 68 201 0.0 0.0 0.00 0.00 0.00 94 1011.6
20260901125902 68 201 0.0 0.0 0.00 0.00 0.00 94 1011.7
20260901124902 68 201 0.0 0.0 0.00 0.00 0.00 94 1011.7
20260901123902 67 201 0.0 0.0 0.00 0.00 0.00 94 1011.7
20260901122902 67 201 0.0 0.0 0.00 0.00 0.00 94 1011.5
20260901121902 67 201 0.0 0.0 0.00 0.00 0.00 95 1011.4
20260901120902 67 201 0.0 0.0 0.00 0.00 0.00 94 1011.2
20260901115932 66 201 0.0 0.0 0.00 0.00 0.00 95 1011.2
20260901114902 66 200 0.0 0.0 0.00 0.00 0.00 94 1011.0
20260901113902 66 200 0.0 0.0 0.00 0.00 0.00 94 1010.8
20260901112902 66 200 0.0 0.0 0.00 0.00 0.00 94 1010.7
20260901112002 66 200 0.0 0.0 0.00 0.00 0.00 94 1010.5
20260901110902 66 200 0.0 0.0 0.00 0.00 0.00 93 1010.6
20260901105902 66 200 0.0 0.0 0.00 0.00 0.00 93 1010.4
20260901104902 66 200 0.0 0.0 0.00 0.00 0.00 93 1010.3
20260901103902 67 200 0.0 0.0 0.00 0.00 0.00 93 1010.2
20260901102902 67 200 0.0 0.0 0.00 0.00 0.00 93 1010.1
20260901101902 67 200 0.0 0.0 0.00 0.00 0.00 93 1010.3
20260901100902 67 200 0.0 0.0 0.00 0.00 0.00 93 1010.3
20260901095902 67 311 0.0 0.0 0.00 0.00 0.00 93 1010.2
20260901094902 67 311 0.0 0.0 0.00 0.00 0.00 93 1010.2
20260901093902 67 311 0.0 0.0 0.00 0.00 0.00 93 1010.1
20260901092902 67 311 0.0 0.0 0.00 0.00 0.00 92 1010.1
20260901091902 67 311 0.0 0.0 0.00 0.00 0.00 92 1010.0
20260901090932 68 311 0.0 0.0 0.00 0.00 0.00 92 1010.0
20260901085902 68 311 0.0 0.0 0.00 0.00 0.00 91 1010.2
20260901084902 68 311 0.0 0.0 0.00 0.00 0.00 91 1010.2
20260901083902 68 311 0.0 0.0 0.00 0.00 0.00 91 1010.2
20260901082902 68 311 0.0 0.0 0.00 0.00 0.00 91 1010.1
20260901081902 68 311 0.0 0.0 0.00 0.00 0.00 90 1010.1
20260901080902 69 311 0.0 0.0 0.00 0.00 0.00 90 1010.1
20260901075932 69 311 0.0 0.0 0.00 0.00 0.00 90 1010.1
20260901074902 69 311 0.0 0.0 0.00 0.00 0.00 90 1010.3
20260901073902 69 311 0.0 0.0 0.00 0.00 0.00 89 1010.4
20260901072932 68 311 0.0 0.0 0.00 0.00 0.00 89 1010.3
20260901071902 69 311 0.0 0.0 0.00 0.00 0.00 88 1010.4
20260901070902 69 311 0.0 0.0 0.00 0.00 0.00 88 1010.5
20260901065902 69 311 0.0 0.0 0.00 0.00 0.00 88 1010.5
20260901064902 69 311 0.0 0.0 0.00 0.00 0.00 88 1010.6
20260901063902 69 311 0.0 0.0 0.00 0.00 0.00 87 1010.8
20260901062931 69 311 0.0 0.0 0.00 0.00 0.00 87 1010.7
20260901061902 70 311 0.0 0.0 0.00 0.00 0.00 87 1010.6
20260901060902 70 311 0.0 0.0 0.00 0.00 0.00 86 1010.6
20260901055902 70 311 0.0 0.0 0.00 0.00 0.00 87 1010.6
20260901054902 70 311 0.0 0.0 0.00 0.00 0.00 86 1010.5
20260901053902 70 311 0.0 0.0 0.00 0.00 0.00 87 1010.3
20260901052902 71 311 0.0 0.0 0.00 0.00 0.00 87 1010.2
20260901051901 71 311 0.0 0.0 0.00 0.00 0.00 85 1010.0
20260901050903 72 311 0.0 0.0 0.00 0.00 0.00 83 1010.0
20260901045931 72 311 0.0 0.0 0.00 0.00 0.00 82 1009.8
20260901044903 72 311 0.0 0.0 0.00 0.00 0.00 81 1009.7
20260901043902 72 311 0.0 0.0 0.00 0.00 0.00 80 1009.7
20260901042902 72 311 0.0 0.0 0.00 0.00 0.00 80 1009.6
20260901041902 72 311 0.0 0.0 0.00 0.00 0.00 80 1009.9
20260901040902 72 311 0.0 0.0 0.00 0.00 0.00 79 1009.8
20260901035902 73 311 0.0 0.0 0.00 0.00 0.00 79 1009.8
20260901034902 73 311 0.0 0.0 0.00 0.00 0.00 79 1010.0
20260901033902 73 311 0.0 0.0 0.00 0.00 0.00 78 1009.9
20260901032932 73 311 0.0 0.0 0.00 0.00 0.00 78 1009.8
20260901031902 73 311 0.0 0.0 0.00 0.00 0.00 79 1009.8
20260901030902 74 311 0.0 0.0 0.00 0.00 0.00 76 1009.7
20260901025902 74 311 0.0 0.0 0.00 0.00 0.00 74 1009.6
20260901024902 74 311 0.0 0.0 0.00 0.00 0.00 74 1009.6
20260901023902 75 311 0.0 0.0 0.00 0.00 0.00 75 1009.5
20260901022932 75 311 0.0 0.0 0.00 0.00 0.00 76 1009.5
20260901021902 75 311 0.0 0.0 0.00 0.00 0.00 75 1009.5
20260901020902 76 311 0.0 0.0 0.00 0.00 0.00 73 1009.4
20260901015902 76 312 0.0 0.0 0.00 0.00 0.00 72 1009.4
20260901014902 76 312 0.0 0.0 0.00 0.00 0.00 69 1009.2
20260901013902 78 312 0.0 0.0 0.00 0.00 0.00 68 1009.0
20260901013002 78 312 0.0 0.0 0.00 0.00 0.00 64 1008.9
20260901011902 79 312 0.0 0.0 0.00 0.00 0.00 62 1008.7
20260901010902 80 312 0.0 0.0 0.00 0.00 0.00 60 1008.6
20260901005902 81 312 0.0 0.0 0.00 0.00 0.00 61 1008.6
20260901004932 82 312 0.0 0.0 0.00 0.00 0.00 58 1008.6
20260901003902 82 312 0.0 0.0 0.00 0.00 0.00 57 1008.5
20260901002932 83 312 0.0 0.0 0.00 0.00 0.00 55 1008.6
20260901001902 84 312 0.0 0.0 0.00 0.00 0.00 54 1008.6
20260901000902 84 312 0.0 0.0 0.00 0.00 0.00 53 1008.5
20260831235902 85 312 0.0 0.0 0.00 0.00 0.00 52 1008.4
20260831234902 85 312 0.0 0.0 0.00 0.00 0.00 51 1008.4
20260831233902 86 303 0.0 0.0 0.00 0.00 0.00 49 1008.3
20260831232903 86 302 0.0 1.0 0.00 0.00 0.00 48 1008.3
20260831231902 86 316 0.0 0.0 0.00 0.00 0.00 50 1008.3
20260831230902 86 311 0.0 1.0 0.00 0.00 0.00 49 1008.3
20260831225902 86 240 1.0 4.0 0.00 0.00 0.00 48 1008.1
20260831224902 87 282 0.0 0.0 0.00 0.00 0.00 52 1008.2
20260831223902 87 55 0.0 0.0 0.00 0.00 0.00 49 1008.0
20260831222902 88 320 0.0 0.0 0.00 0.00 0.00 51 1008.0
20260831221902 88 0 0.0 0.0 0.00 0.00 0.00 51 1007.8
20260831220902 88 5 0.0 0.0 0.00 0.00 0.00 54 1007.8
20260831215902 88 21 0.0 1.0 0.00 0.00 0.00 53 1007.8
20260831214902 88 5 0.0 0.0 0.00 0.00 0.00 54 1007.8
20260831213902 89 324 0.0 0.0 0.00 0.00 0.00 55 1007.7
20260831212931 89 275 0.0 0.0 0.00 0.00 0.00 55 1007.7
20260831211902 89 274 1.0 2.0 0.00 0.00 0.00 54 1007.5
20260831210901 89 279 0.0 0.0 0.00 0.00 0.00 52 1007.6
20260831205903 89 65 0.0 1.0 0.00 0.00 0.00 54 1007.5
20260831204902 89 29 0.0 0.0 0.00 0.00 0.00 53 1007.6
20260831203902 89 301 0.0 0.0 0.00 0.00 0.00 51 1007.6
20260831202901 90 166 0.0 1.0 0.00 0.00 0.00 54 1007.7
20260831201933 90 269 0.0 1.0 0.00 0.00 0.00 54 1007.6
20260831200901 90 209 0.0 0.0 0.00 0.00 0.00 54 1007.5
20260831195903 90 227 0.0 1.0 0.00 0.00 0.00 57 1007.5
20260831194902 91 259 1.0 1.0 0.00 0.00 0.00 57 1007.3
20260831193902 92 259 0.0 1.0 0.00 0.00 0.00 55 1007.4
20260831192902 92 204 0.0 1.0 0.00 0.00 0.00 56 1007.5
20260831191902 92 299 0.0 1.0 0.00 0.00 0.00 56 1007.4
20260831190902 91 1 0.0 0.0 0.00 0.00 0.00 60 1007.4
20260831185932 89 322 0.0 1.0 0.00 0.00 0.00 61 1007.3
20260831184902 90 293 1.0 2.0 0.00 0.00 0.00 57 1007.3
20260831183902 89 157 0.0 1.0 0.00 0.00 0.00 60 1007.3
20260831182902 89 263 1.0 2.0 0.00 0.00 0.00 63 1007.4
20260831181901 89 268 0.0 1.0 0.00 0.00 0.00 69 1007.3
20260831180902 88 93 0.0 1.0 0.00 0.00 0.00 73 1007.5
20260831175901 87 325 1.0 3.0 0.00 0.00 0.00 73 1007.5
20260831174902 86 350 0.0 1.0 0.00 0.00 0.00 75 1007.6
20260831173903 86 14 1.0 2.0 0.00 0.00 0.00 76 1007.7
20260831172901 85 195 0.0 0.0 0.00 0.00 0.00 78 1007.7
20260831171932 85 298 0.0 0.0 0.00 0.00 0.00 78 1007.7
20260831170902 84 277 0.0 1.0 0.00 0.00 0.00 79 1007.8